Weather in Veselovka

Russia / Komi Republic     61°28′16″N   51°35′05″E
temp.,
°C
wind,
m/s
gust,
m/s
humid.,
%
clouds,
%
prec.,
mm/h
press.,
hPa
HPBL,
m
1 march, mon
mon100:00−19ssw229660 0.0 101720
03:00−20sw239764 0.0 101838
06:00−18ssw259892 0.1 1016102
09:00−15ssw389487 0.1 1015278
12:00−11ssw51092100 0.0 1011363
15:00−8ssw61292100 0.1 1007530
18:00−8ssw61393100 0.9 1003708
21:00−7ssw61393100 1.7 999658
2 march, tue
tue200:00−6ssw51294100 1.4 995642
03:00−4ssw41196100 3.0 993556
06:00−3sw3697100 1.5 991269
09:00−3nw3695100 1.7 991362
12:00−2wnw239099 0.1 990445
15:00−2wnw2591100 0.2 992526
18:00−3w2597100 0.1 992205
21:00−4nw2797100 0.2 993253
3 march, wed
wed300:00−8wnw239893 0.0 99363
03:00−6wnw379694 0.1 994293
06:00−7nw399699 0.5 994422
09:00−7nw489399 0.6 996457
12:00−6w3690100 0.1 996584
15:00−6w3790100 0.3 996743
18:00−8w3995100 0.2 996497
21:00−10wsw3995100 0.3 996363
4 march, thu
thu400:00−9wsw31094100 0.2 995471
03:00−10w3895100 0.5 995500
06:00−12w269797 0.2 994193
09:00−11w359298 0.3 993461
12:00−9wsw2489100 0.0 993541
15:00−8ssw1287100 0.1 991506
18:00−10ene2497100 0.1 989122
21:00−11ne3696100 0.3 988199
5 march, fri
fri500:00−13nne4896100 0.1 987265
03:00−15n4896100 0.3 989276
06:00−19nnw389797 0.1 992206
09:00−17nnw379589 0.1 995279
12:00−13nw369299 0.0 998428
15:00−12nw379199 0.1 1001584
18:00−14nw2896100 0.1 1003363
21:00−16wnw3796100 0.2 1006269